Regional Weather Roundup
Issued by NWS San Angelo, TX

Home | Current Version | Previous Version | Text Only | Print | Product List | Glossary On
Versions: 1 2 3 4 5 6 7 8 9 10 11 12 13 14 15 16 17 18 19 20 21 22 23 24 25 26 27 28 29 30 31 32 33 34 35 36 37 38 39 40 41 42 43 44 45 46 47 48 49 50
000
ASUS44 KSJT 250411
RWRSJT
WEST CENTRAL TEXAS REGIONAL WEATHER ROUNDUP
NATIONAL WEATHER SERVICE SAN ANGELO TX
1100 PM CDT WED AUG 24 2016

NOTE: "FAIR" INDICATES FEW OR NO CLOUDS BELOW 12,000 FEET WITH NO
SIGNIFICANT WEATHER AND/OR OBSTRUCTIONS TO VISIBILITY.

TXZ049-054-064>066-071>073-076>078-098-099-113-114-127-128-139-140-
154-155-168>170-250500
...LOCATIONS ACROSS WEST CENTRAL TEXAS...

CITY           SKY/WX    TMP DP  RH WIND       PRES   REMARKS
SAN ANGELO     CLEAR     77  65  66 SE6       30.06R
ABILENE        CLEAR     78  66  66 SE14      30.07R
DYESS AFB      CLEAR     79  66  64 SE10      30.05R
JUNCTION       CLEAR     79  67  66 E6        30.09R
SWEETWATER     CLEAR     73  63  69 E3        30.11R
BROWNWOOD      PTCLDY    79  66  65 SE10      30.07S
COLEMAN        CLEAR     79  65  60 S9        30.08R
SONORA         CLEAR     79  64  61 SE6       30.14R
OZONA          FAIR      79  61  53 S7        30.12R
BRADY          NOT AVBL
$$

TEXAS PANHANDLE/OKLAHOMA PANHANDLE

CITY           SKY/WX    TMP DP  RH WIND       PRES   REMARKS
AMARILLO       CLOUDY    69  60  73 S14       30.12R
BORGER         CLOUDY    77  59  53 S9G20     30.08R
CANADIAN       CLOUDY    74  67  76 SE3       30.04S
DALHART        LGT RAIN  64  59  83 N12       30.16R
DUMAS          PTCLDY    64  60  85 NW14      30.15R
GUYMON         NOT AVBL
HEREFORD       CLEAR     69  60  73 SE10      30.13R
PAMPA          CLOUDY    76  60  56 S12       30.10R
PERRYTON       MOCLDY    71  65  82 SE5       30.06S
$$

SOUTHERN PANHANDLE/SOUTH PLAINS/ROLLING PLAINS

CITY           SKY/WX    TMP DP  RH WIND       PRES   REMARKS
LUBBOCK        PTCLDY    68  63  84 SE9       30.10R
SNYDER           N/A     69  65  86 CALM      30.10R
CHILDRESS        N/A     73  69  87 S6        30.05R
SEMINOLE       CLOUDY    67  63  85 CALM      30.13R
$$

PERMIAN BASIN

CITY           SKY/WX    TMP DP  RH WIND       PRES   REMARKS
MIDLAND        MOCLDY    74  65  73 CALM      30.11R
ODESSA         CLOUDY    70  64  81 CALM      30.11S
WINK           PTCLDY    69  66  90 SE6       30.08R
$$

FAR WEST/SOUTHWEST MOUNTAINS/TRANS PECOS

CITY           SKY/WX    TMP DP  RH WIND       PRES   REMARKS
ALPINE         PTCLDY    66  64  91 S5        30.24S
DRYDEN           N/A     82  64  54 SE13      30.05R
EL PASO        PTCLDY    82  53  36 N6        30.09R
FORT STOCKTON  MOCLDY    72  65  78 SE6       30.10R
GUADALUPE PASS CLEAR     65  62  90 NE15      30.23R
MARFA          CLEAR    N/A N/A N/A CALM      30.22R
PECOS          PTCLDY    69  66  91 E5        30.07R
$$

DALLAS/FORT WORTH METROPLEX

CITY           SKY/WX    TMP DP  RH WIND       PRES   REMARKS
DFW AIRPORT    PTCLDY    84  68  58 S12       30.06R
FTW MEACHAM    CLEAR     84  70  62 SE14      30.05R
DAL-EXECUTIVE  CLEAR     82  72  71 SE7       30.07R
GRAND PRAIRIE  CLEAR     82  68  63 SE6       30.08R
ADDISON        CLEAR     84  72  67 S12       30.09R
MESQUITE       CLEAR     77  73  88 S3        30.07S
LANCASTER      CLEAR     80  72  75 CALM      30.08R
$$

NORTH CENTRAL TEXAS

CITY           SKY/WX    TMP DP  RH WIND       PRES   REMARKS
SHRMAN/DENISON PTCLDY    82  72  72 SE13      30.08S
GAINESVILLE      N/A     78  70  76 S8        30.07S
BRIDGEPORT     CLEAR     80  70  71 S7        30.07R
DENTON         CLEAR     82  70  66 SE10      30.05S
WAXAHACHIE     CLEAR     78  71  80 SE5       30.09R
GRANBURY       CLEAR     83  69  61 SE8       30.07S
$$

WESTERN NORTH TEXAS

CITY           SKY/WX    TMP DP  RH WIND       PRES   REMARKS
WICHITA FALLS  CLEAR     80  68  66 SE12      30.01S
VERNON         MOCLDY    73  63  71 NE6       30.04S
BRECKENRIDGE   CLEAR     82  67  58 SE10      30.05S
COMANCHE       CLEAR     79  69  70 S8        30.08R
$$

CENTRAL AND SOUTH CENTRAL TEXAS

CITY           SKY/WX    TMP DP  RH WIND       PRES   REMARKS
AUSTIN/BERGSTM PTCLDY    81  75  82 S9        30.08R
WACO           CLEAR     82  73  74 SE10      30.07R
HILLSBORO      CLEAR     80  71  74 SE9       30.08S
TEMPLE         CLEAR     81  73  76 SE7       30.09R
KILLEEN-GRAY   CLEAR     77  71  80 SE9       30.08R
FORT HOOD      CLEAR     80  70  72 SE9       30.07R
GEORGETOWN     CLEAR     82  72  69 S6        30.09R
LAGO VISTA     FAIR      82  73  74 SE7       30.11S
SAN MARCOS     CLEAR     79  73  83 S6        30.11R
NEW BRAUNFELS  CLEAR     77  72  84 SE8       30.08R
RANDOLPH AFB   CLEAR     78  73  86 SE10      30.08R
SAN ANTONIO    PTCLDY    80  71  74 SE14      30.09R
STINSON        CLEAR     81  71  71 SE10      30.06R
PLEASANTON     NOT AVBL
LA GRANGE      CLEAR     79  75  89 S3        30.06R
GIDDINGS       CLEAR     78  71  78 CALM      30.12R
$$

EAST TEXAS

CITY           SKY/WX    TMP DP  RH WIND       PRES   REMARKS
PARIS          CLEAR     79  72  78 SE7       30.09R
CLARKSVILLE    NOT AVBL
TYLER          CLEAR     82  76  81 SE7       30.09R
LONGVIEW       CLOUDY    80  76  87 SE5       30.08R
PALESTINE      CLEAR     80  75  84 CALM      30.09R
NACOGDOCHES    PTCLDY   N/A N/A N/A CALM      30.08R
$$

TEXAS HILL COUNTRY AND EDWARDS PLATEAU

CITY           SKY/WX    TMP DP  RH WIND       PRES   REMARKS
LLANO          CLEAR     79  75  89 SE5       30.11S
HORSESHOE BAY  FAIR      77  69  75 SE5       30.09R
KERRVILLE      CLEAR     76  71  82 SE7       30.11R
FREDERICKSBRG  CLEAR     76  67  71 SE6       30.11R
ROCKSPRINGS    CLEAR     77  66  69 SE5       30.15R
HONDO          CLEAR     81  69  67 SE13      30.07R
UVALDE         CLEAR     80  71  75 SE13G18   30.05R
DEL RIO        CLEAR     81  70  69 E6        30.02R
$$

SOUTHEAST TEXAS

CITY           SKY/WX    TMP DP  RH WIND       PRES   REMARKS
COLLEGE STN    CLEAR     82  77  84 SE8       30.08R
CALDWELL       CLEAR     79  77  94 SE3       30.11R
CROCKETT       CLEAR     79  77  94 CALM      30.11S
BRENHAM        CLEAR     82  76  84 S3        30.10R
HUNTSVILLE     CLEAR     83  75  77 VRB5      30.09R
CONROE         CLEAR     79  76  90 CALM      30.09R
HOUSTON BUSH   PTCLDY    79  76  90 S5        30.07S
HOUSTON HOBBY  PTCLDY    81  75  82 E5        30.07S
PERLAND        CLEAR     82  76  81 E3        30.09R
WHARTON        CLEAR     78  76  94 SE3       30.08R
$$

THE UPPER TEXAS COAST

CITY           SKY/WX    TMP DP  RH WIND       PRES   REMARKS
ORANGE         CLEAR     78  76  94 CALM      30.09F
PORT ARTHUR    CLEAR     78  75  90 CALM      30.08R
GALVESTON      PTCLDY    84  78  82 SE7       30.08S
ANGLETON       CLEAR     80  77  90 CALM      30.08R
BAY CITY       CLEAR     80  77  92 SE3       30.08R
$$

TEXAS COASTAL BEND, RIO GRANDE PLAINS DEEP SOUTH TEXAS

CITY           SKY/WX    TMP DP  RH WIND       PRES   REMARKS
VICTORIA       CLEAR     79  76  90 S7        30.07R
BEEVILLE       FAIR      79  78  99 SE3       30.07R
ROCKPORT       CLEAR     84  76  76 SE15      30.05R
PORT ARANSAS   MOCLDY    84  78  82 SE9       30.06R
PORT LAVACA    CLEAR     80  77  92 CALM      30.07R
CORPUS CHRISTI PTCLDY    82  77  84 SE7       30.06R
KINGSVILLE NAS PTCLDY    79  77  94 SE8       30.06R
COTULLA        CLEAR     84  71  65 SE17G25   30.04R
LAREDO         CLEAR     84  73  69 E15       30.01R
BROWNSVILLE    CLEAR     81  76  84 SE8       30.05R
PORT ISABEL    CLEAR     82  76  81 SE7       30.05R
HEBBRONVILLE   CLEAR     80  73  79 SE12G17   30.06R
MCALLEN        CLEAR     84  73  69 SE13      30.05R
WESLACO        CLEAR    N/A N/A N/A SE9       30.04R
FALFURRIAS     CLEAR     80  75  84 SE7       30.05R
EDINBURG       CLEAR     82  73  74 SE5       30.05R
$$



USA.gov is the U.S. government's official web portal to all federal, state and local government web resources and services.